When you browse on this site, cookies collect data to enhance your experience and personalize the content and advertising you see.
Visit our Privacy Policy to learn more. By continuing to use the site, you agree to this use of cookies and data.
  • En España
  • Lista de países
  • Para 7 días
  • Temperatura del agua
  • El tiempo en el mapa
  • Informadores
  • user-avatar
    Iniciar sesión

    Tiempo cada hora Birmingham

    Hoy, 15 Septiembre, Domingo

    Tiempo Temperatura Precipitaciones Viento Presión Humedad
    00:00 +12°C° 0 mm 3 mps 756 mmHg 83%
    01:00 +12°C° 0 mm 3 mps 756 mmHg 84%
    02:00 +11°C° 0 mm 3 mps 755 mmHg 84%
    03:00 +11°C° 0 mm 3 mps 755 mmHg 84%
    04:00 +11°C° 0 mm 3 mps 755 mmHg 85%
    05:00 +11°C° 0 mm 3 mps 755 mmHg 86%
    06:00 +11°C° 0 mm 3 mps 755 mmHg 85%
    07:00 +13°C° 0 mm 3 mps 755 mmHg 83%
    08:00 +14°C° 0 mm 3 mps 755 mmHg 81%
    09:00 +17°C° 0 mm 3 mps 755 mmHg 79%
    10:00 +18°C° 0 mm 3 mps 755 mmHg 76%
    11:00 +19°C° 0 mm 3 mps 755 mmHg 73%
    12:00 +21°C° 0 mm 4 mps 755 mmHg 70%
    13:00 +21°C° 0 mm 4 mps 755 mmHg 70%
    14:00 +21°C° 0 mm 4 mps 755 mmHg 71%
    15:00 +21°C° 0 mm 4 mps 754 mmHg 71%
    16:00 +20°C° 0 mm 4 mps 754 mmHg 76%
    17:00 +19°C° 0 mm 3 mps 754 mmHg 80%
    18:00 +18°C° 0 mm 2 mps 754 mmHg 84%
    19:00 +17°C° 0 mm 2 mps 754 mmHg 85%
    20:00 +17°C° 0 mm 2 mps 754 mmHg 87%
    21:00 +16°C° 0 mm 2 mps 754 mmHg 88%
    22:00 +16°C° 0.2 mm 2 mps 754 mmHg 89%
    23:00 +16°C° 0.2 mm 2 mps 753 mmHg 91%

    Mañana, 16 Septiembre, Lunes

    Tiempo Temperatura Precipitaciones Viento Presión Humedad
    00:00 +16°C° 0.2 mm 3 mps 753 mmHg 92%
    01:00 +16°C° 0 mm 3 mps 753 mmHg 92%
    02:00 +16°C° 0 mm 3 mps 752 mmHg 91%
    03:00 +16°C° 0 mm 3 mps 752 mmHg 90%
    04:00 +16°C° 0 mm 3 mps 752 mmHg 91%
    05:00 +16°C° 0 mm 3 mps 752 mmHg 91%
    06:00 +16°C° 0 mm 3 mps 752 mmHg 92%
    07:00 +16°C° 0 mm 3 mps 752 mmHg 91%
    08:00 +16°C° 0 mm 3 mps 752 mmHg 90%
    09:00 +16°C° 0 mm 3 mps 753 mmHg 89%
    10:00 +16°C° 0 mm 3 mps 753 mmHg 87%
    11:00 +16°C° 0 mm 3 mps 753 mmHg 84%
    12:00 +15°C° 0 mm 4 mps 753 mmHg 82%
    13:00 +15°C° 0 mm 4 mps 753 mmHg 78%
    14:00 +17°C° 0 mm 4 mps 753 mmHg 73%
    15:00 +18°C° 0 mm 4 mps 754 mmHg 69%
    16:00 +15°C° 0 mm 4 mps 754 mmHg 70%
    17:00 +14°C° 0 mm 4 mps 754 mmHg 71%
    18:00 +13°C° 0 mm 4 mps 754 mmHg 72%
    19:00 +12°C° 0 mm 4 mps 754 mmHg 75%
    20:00 +11°C° 0 mm 3 mps 755 mmHg 78%
    21:00 +10°C° 0 mm 3 mps 755 mmHg 81%
    22:00 +9°C° 0 mm 3 mps 756 mmHg 83%
    23:00 +9°C° 0 mm 3 mps 756 mmHg 86%

    Pasado mañana, 17 Septiembre, Martes

    Tiempo Temperatura Precipitaciones Viento Presión Humedad
    00:00 +8°C° 0 mm 2 mps 756 mmHg 88%
    01:00 +8°C° 0 mm 2 mps 756 mmHg 89%
    02:00 +8°C° 0 mm 2 mps 756 mmHg 90%
    03:00 +8°C° 0 mm 2 mps 756 mmHg 90%
    04:00 +8°C° 0 mm 2 mps 756 mmHg 90%
    05:00 +8°C° 0 mm 2 mps 756 mmHg 90%
    06:00 +7°C° 0 mm 2 mps 756 mmHg 90%
    07:00 +9°C° 0 mm 2 mps 756 mmHg 84%
    08:00 +10°C° 0 mm 3 mps 757 mmHg 77%
    09:00 +12°C° 0 mm 3 mps 757 mmHg 71%
    10:00 +13°C° 0 mm 3 mps 757 mmHg 67%
    11:00 +14°C° 0 mm 3 mps 757 mmHg 63%
    12:00 +16°C° 0 mm 3 mps 757 mmHg 59%
    13:00 +16°C° 0 mm 3 mps 756 mmHg 58%
    14:00 +17°C° 0 mm 3 mps 756 mmHg 57%
    15:00 +17°C° 0 mm 3 mps 756 mmHg 56%
    16:00 +16°C° 0 mm 3 mps 756 mmHg 62%
    17:00 +14°C° 0 mm 3 mps 756 mmHg 67%
    18:00 +13°C° 0 mm 3 mps 756 mmHg 73%
    19:00 +12°C° 0 mm 3 mps 756 mmHg 76%
    20:00 +12°C° 0 mm 2 mps 757 mmHg 79%
    21:00 +10°C° 0 mm 2 mps 757 mmHg 82%
    22:00 +9°C° 0 mm 2 mps 757 mmHg 84%
    23:00 +9°C° 0 mm 2 mps 757 mmHg 85%

    18 Septiembre, Miércoles

    Tiempo Temperatura Precipitaciones Viento Presión Humedad
    00:00 +9°C° 0 mm 1 mps 757 mmHg 87%
    01:00 +9°C° 0 mm 1 mps 757 mmHg 88%
    02:00 +9°C° 0 mm 1 mps 757 mmHg 88%
    03:00 +9°C° 0 mm 1 mps 757 mmHg 89%
    04:00 +9°C° 0 mm 1 mps 757 mmHg 89%
    05:00 +9°C° 0 mm 1 mps 757 mmHg 89%
    06:00 +8°C° 0 mm 1 mps 757 mmHg 90%
    07:00 +10°C° 0 mm 1 mps 758 mmHg 84%
    08:00 +12°C° 0 mm 1 mps 758 mmHg 78%
    09:00 +13°C° 0 mm 1 mps 758 mmHg 72%
    10:00 +14°C° 0 mm 1 mps 758 mmHg 70%
    11:00 +15°C° 0 mm 1 mps 758 mmHg 68%
    12:00 +16°C° 0 mm 1 mps 758 mmHg 65%
    13:00 +17°C° 0 mm 2 mps 758 mmHg 66%
    14:00 +17°C° 0 mm 2 mps 758 mmHg 66%
    15:00 +18°C° 0 mm 2 mps 758 mmHg 66%
    16:00 +17°C° 0 mm 2 mps 758 mmHg 71%
    17:00 +16°C° 0 mm 2 mps 758 mmHg 75%
    18:00 +15°C° 0 mm 2 mps 758 mmHg 80%
    19:00 +14°C° 0 mm 2 mps 758 mmHg 83%
    20:00 +14°C° 0 mm 1 mps 759 mmHg 85%
    21:00 +13°C° 0 mm 1 mps 759 mmHg 88%
    22:00 +13°C° 0 mm 1 mps 759 mmHg 87%
    23:00 +13°C° 0 mm 1 mps 759 mmHg 86%

    19 Septiembre, Jueves

    Tiempo Temperatura Precipitaciones Viento Presión Humedad
    00:00 +13°C° 0 mm 1 mps 760 mmHg 85%
    01:00 +13°C° 0 mm 1 mps 760 mmHg 84%
    02:00 +13°C° 0 mm 1 mps 760 mmHg 83%
    03:00 +12°C° 0 mm 2 mps 760 mmHg 82%
    04:00 +12°C° 0 mm 2 mps 760 mmHg 83%
    05:00 +12°C° 0 mm 2 mps 760 mmHg 84%
    06:00 +10°C° 0 mm 2 mps 760 mmHg 85%
    07:00 +12°C° 0 mm 2 mps 760 mmHg 84%
    08:00 +12°C° 0 mm 2 mps 761 mmHg 82%
    09:00 +12°C° 0 mm 2 mps 761 mmHg 81%
    10:00 +13°C° 0 mm 2 mps 761 mmHg 77%
    11:00 +14°C° 0 mm 2 mps 761 mmHg 73%
    12:00 +15°C° 0 mm 2 mps 761 mmHg 69%
    13:00 +15°C° 0 mm 2 mps 761 mmHg 66%
    14:00 +16°C° 0 mm 2 mps 761 mmHg 64%
    15:00 +17°C° 0 mm 2 mps 761 mmHg 61%
    16:00 +16°C° 0 mm 2 mps 761 mmHg 64%
    17:00 +15°C° 0 mm 2 mps 761 mmHg 67%
    18:00 +14°C° 0 mm 2 mps 761 mmHg 70%
    19:00 +13°C° 0 mm 2 mps 761 mmHg 71%
    20:00 +12°C° 0 mm 2 mps 761 mmHg 71%
    21:00 +10°C° 0 mm 3 mps 762 mmHg 71%
    22:00 +9°C° 0 mm 2 mps 761 mmHg 73%
    23:00 +9°C° 0 mm 2 mps 761 mmHg 74%

    20 Septiembre, Viernes

    Tiempo Temperatura Precipitaciones Viento Presión Humedad
    00:00 +8°C° 0 mm 2 mps 761 mmHg 76%
    01:00 +8°C° 0 mm 2 mps 761 mmHg 78%
    02:00 +8°C° 0 mm 2 mps 761 mmHg 80%
    03:00 +8°C° 0 mm 1 mps 761 mmHg 82%
    04:00 +8°C° 0 mm 1 mps 761 mmHg 83%
    05:00 +7°C° 0 mm 2 mps 760 mmHg 84%
    06:00 +6°C° 0 mm 2 mps 760 mmHg 84%
    07:00 +8°C° 0 mm 2 mps 760 mmHg 79%
    08:00 +10°C° 0 mm 3 mps 760 mmHg 74%
    09:00 +11°C° 0 mm 3 mps 760 mmHg 70%
    10:00 +13°C° 0 mm 3 mps 760 mmHg 66%
    11:00 +14°C° 0 mm 4 mps 759 mmHg 62%
    12:00 +15°C° 0 mm 4 mps 759 mmHg 58%
    13:00 +15°C° 0 mm 4 mps 758 mmHg 57%
    14:00 +17°C° 0 mm 4 mps 758 mmHg 56%
    15:00 +17°C° 0 mm 4 mps 757 mmHg 55%
    16:00 +15°C° 0 mm 4 mps 757 mmHg 60%
    17:00 +14°C° 0 mm 4 mps 756 mmHg 65%
    18:00 +13°C° 0 mm 3 mps 756 mmHg 70%
    19:00 +12°C° 0 mm 4 mps 756 mmHg 72%
    20:00 +11°C° 0 mm 4 mps 756 mmHg 74%
    21:00 +10°C° 0 mm 4 mps 756 mmHg 75%
    22:00 +10°C° 0 mm 4 mps 755 mmHg 78%
    23:00 +8°C° 0 mm 4 mps 755 mmHg 80%
    Mostrar más